Location: Unspecified
(0.0000°N, 0.0000°E)
Time: 16:15:43
(UTC+00:00)

deb Explorer IX - Pass Details

Date: 20 November 2019
Orbit: 546 x 1104 km, 38.8° (Epoch: 12 December)

Event Time Altitude Azimuth Distance (km) Brightness Sun altitude
Rises 07:17:26 0° 343° (NNW) 2,819 ? 21.6°
Reaches altitude 10° 07:21:13 10° 16° (NNE) 1,845 ? 22.5°
Maximum altitude 07:22:46 12° 38° (NE) 1,712 ? 22.8°
Drops below altitude 10° 07:24:18 10° 60° (ENE) 1,810 ? 23.2°
Sets 07:27:53 0° 93° (E) 2,694 ? 24.0°
